STARLINK-35051 (65380 NORAD) Tracking and Keplerian Element Data

This shows tracking and keplerian element data for the satellite.

Feedback or suggestion? Click here.




ElementValue
Catalog65380
NameSTARLINK-35051
Epoch Orbit1832
Epoch Day354.21934224
Epoch Year2025
RAAN223.2288
Inclination97.6021
Eccentricity0.0002505
Argument of Perigee80.4928
Mean Anonmoly279.6581
Mean Motion15.05616585
Decay Rate-5.276E-05
L11 65380U 25191B 25354.21934224 -.00005276 00000+0 -36200-3 0 9991
L22 65380 97.6021 223.2288 0002505 80.4928 279.6581 15.05616585 18323



Live tracking and technical data element details for STARLINK-35051 (NORAD 65380). STARLINK-35051 can be tracked NOW for your location showing map with azimuth and elevation plus other details from your city location.







IsCatalogInMostPopularTable: catalog: 65380, numindb: 3
Update: records affected: 1



GetName: 65380 STARLINK-35051

Hit Count: updated at: Mon, 09 Feb 2026 09:17:43 GMT